GW3496 Weather Reports


Display with metric or nautical units.
time (UTC)temp
F
wind
direction
speed
MPH
gust
MPH
rain 1hr
in
rain 24hr
in
rain mn
in
humidity
%
barometer
mb
20260904133040 78 40 4.0 8.0 0.00 0.47 0.47 87 1013.1
20260904131538 77 26 3.0 9.0 0.00 0.47 0.47 90 1013.0
20260904130049 76 27 6.0 11.0 0.00 0.47 0.47 92 1012.8
20260904124543 76 51 3.0 10.0 0.00 0.47 0.47 93 1012.7
20260904123041 75 23 4.0 7.0 0.00 0.47 0.47 94 1012.5
20260904121540 74 282 0.0 3.0 0.00 0.47 0.47 94 1012.5
20260904120051 74 323 0.0 0.0 0.00 0.47 0.47 94 1012.4
20260904114543 73 239 0.0 0.0 0.00 0.47 0.47 95 1012.2
20260904113043 73 234 0.0 0.0 0.00 0.47 0.47 95 1012.0
20260904111542 72 222 0.0 0.0 0.00 0.47 0.47 94 1011.8
20260904110050 72 350 0.0 0.0 0.00 0.47 0.47 94 1011.8
20260904104544 72 350 0.0 0.0 0.00 0.47 0.47 94 1011.7
20260904103052 72 190 0.0 0.0 0.00 0.47 0.47 94 1011.5
20260904101542 72 190 0.0 0.0 0.00 0.47 0.47 94 1011.5
20260904100051 72 206 0.0 0.0 0.00 0.47 0.47 94 1011.4
20260904094553 72 188 0.0 0.0 0.00 0.47 0.47 94 1011.3
20260904093054 72 222 0.0 4.0 0.00 0.47 0.47 94 1011.3
20260904091553 72 177 0.0 3.0 0.00 0.47 0.47 94 1011.4
20260904090053 73 154 2.0 5.0 0.00 0.47 0.47 94 1011.4
20260904084552 73 148 1.0 6.0 0.01 0.47 0.47 94 1011.5
20260904083044 73 146 1.0 3.0 0.01 0.47 0.47 94 1011.5
20260904081555 73 131 0.0 0.0 0.01 0.47 0.47 94 1011.5
20260904080052 72 355 0.0 0.0 0.02 0.47 0.47 94 1011.6
20260904074601 73 355 0.0 3.0 0.03 0.45 0.45 94 1011.3
20260904073045 73 15 0.0 4.0 0.04 0.45 0.45 93 1011.1
20260904071611 73 346 0.0 0.0 0.08 0.45 0.45 93 1011.2
20260904070106 73 260 2.0 4.0 0.09 0.45 0.45 92 1010.9
20260904064605 73 200 4.0 7.0 0.13 0.42 0.42 92 1011.0
20260904063054 73 281 0.0 0.0 0.17 0.41 0.41 92 1011.2
20260904061553 73 164 1.0 4.0 0.22 0.38 0.38 92 1011.2
20260904060054 73 139 1.0 7.0 0.35 0.35 0.35 92 1011.3
20260904054551 74 226 5.0 10.0 0.29 0.29 0.29 91 1011.9
20260904053100 74 232 2.0 4.0 0.22 0.22 0.22 90 1012.4
20260904051553 75 282 2.0 11.0 0.14 0.14 0.14 88 1013.3
20260904050107 77 298 10.0 27.0 0.00 0.00 0.00 82 1013.8
20260904044617 79 17 14.0 24.0 0.00 0.00 0.00 81 1014.1
20260904043105 82 17 12.0 24.0 0.00 0.00 0.00 87 1013.6
20260904041540 82 321 4.0 10.0 0.00 0.00 0.00 88 1012.4
20260904040041 83 17 3.0 8.0 0.00 0.00 0.00 87 1012.8
20260904034540 83 298 6.0 11.0 0.00 0.00 0.00 87 1012.0
20260904033049 83 319 1.0 4.0 0.00 0.00 0.00 87 1011.8
20260904031557 83 5 0.0 0.0 0.00 0.00 0.00 88 1011.6
20260904030040 83 5 0.0 0.0 0.00 0.00 0.00 87 1011.6
20260904024543 84 34 0.0 0.0 0.00 0.00 0.00 86 1011.6
20260904023042 85 165 0.0 1.0 0.00 0.00 0.00 84 1011.7
20260904021548 85 179 0.0 1.0 0.00 0.00 0.00 84 1011.8
20260904020041 85 261 0.0 0.0 0.00 0.00 0.00 84 1012.1
20260904014544 85 159 0.0 1.0 0.00 0.00 0.00 84 1011.9
20260904013042 86 184 0.0 0.0 0.00 0.00 0.00 83 1012.1
20260904011543 87 145 0.0 0.0 0.00 0.00 0.00 81 1012.2
20260904010050 87 163 0.0 0.0 0.00 0.00 0.00 79 1012.7
20260904004543 87 202 0.0 0.0 0.00 0.00 0.00 78 1012.9
20260904003039 88 202 0.0 0.0 0.00 0.00 0.00 78 1013.0
20260904001543 88 234 0.0 0.0 0.00 0.00 0.00 77 1012.9
20260904000041 88 188 0.0 0.0 0.00 0.00 0.00 76 1012.5
20260903234545 88 189 0.0 5.0 0.00 0.00 0.00 76 1012.2
20260903233046 89 269 0.0 0.0 0.00 0.00 0.00 75 1012.5
20260903231539 89 228 0.0 5.0 0.00 0.00 0.00 74 1012.2
20260903230047 89 264 2.0 5.0 0.00 0.00 0.00 74 1012.3
20260903224545 90 269 3.0 8.0 0.00 0.00 0.00 72 1012.0
20260903223047 90 263 3.0 10.0 0.00 0.00 0.00 71 1011.8
20260903221549 90 227 7.0 11.0 0.00 0.00 0.00 71 1011.9
20260903220042 90 210 6.0 10.0 0.00 0.00 0.00 69 1012.2
20260903214538 90 212 6.0 9.0 0.00 0.00 0.00 69 1012.2
20260903213043 90 223 3.0 10.0 0.00 0.00 0.00 70 1012.4
20260903211547 89 157 2.0 9.0 0.00 0.00 0.00 71 1012.7
20260903210054 89 227 5.0 12.0 0.00 0.00 0.00 69 1012.7
20260903204543 89 228 5.0 9.0 0.00 0.00 0.00 69 1012.7
20260903203049 90 263 4.0 8.0 0.00 0.00 0.00 67 1012.9
20260903201542 89 213 4.0 10.0 0.00 0.00 0.00 68 1013.2
20260903200051 89 298 4.0 10.0 0.00 0.00 0.00 69 1013.4
20260903194545 88 284 1.0 8.0 0.00 0.00 0.00 70 1013.4
20260903193048 89 293 3.0 7.0 0.00 0.00 0.00 69 1014.0
20260903191542 87 247 3.0 8.0 0.00 0.00 0.00 70 1014.1
20260903190043 88 254 3.0 8.0 0.00 0.00 0.00 71 1014.0
20260903184548 87 253 4.0 8.0 0.00 0.00 0.00 72 1014.1
20260903183044 87 276 1.0 7.0 0.00 0.00 0.00 72 1014.2
20260903181542 87 319 1.0 4.0 0.00 0.00 0.00 71 1014.6
20260903180106 88 311 2.0 6.0 0.00 0.00 0.00 71 1014.7
20260903174544 87 97 1.0 4.0 0.00 0.00 0.00 71 1014.8
20260903173043 87 318 4.0 9.0 0.00 0.00 0.00 72 1015.4
20260903171549 86 301 1.0 8.0 0.00 0.00 0.00 75 1015.5
20260903170049 84 11 0.0 6.0 0.00 0.00 0.00 77 1015.9
20260903164558 84 200 2.0 8.0 0.00 0.00 0.00 77 1015.6
20260903163046 83 355 0.0 0.0 0.00 0.00 0.00 78 1015.7
20260903161543 81 186 0.0 6.0 0.00 0.00 0.00 82 1016.1
20260903160047 81 69 2.0 6.0 0.00 0.00 0.00 82 1015.9
20260903154552 79 165 0.0 5.0 0.00 0.00 0.00 87 1016.4
20260903153052 78 18 0.0 5.0 0.00 0.00 0.00 89 1016.1
20260903151553 77 360 0.0 5.0 0.00 0.00 0.00 90 1016.1
20260903150048 77 41 0.0 0.0 0.00 0.00 0.00 91 1015.8
20260903144556 77 123 2.0 4.0 0.00 0.00 0.00 92 1015.7
20260903143049 76 103 1.0 4.0 0.00 0.00 0.00 93 1015.7
20260903141549 76 70 1.0 5.0 0.00 0.00 0.00 93 1015.6
20260903140055 75 76 1.0 6.0 0.00 0.00 0.00 94 1015.8
20260903134553 75 360 4.0 8.0 0.00 0.00 0.00 94 1015.5